| time (UTC) | temp F | wind direction | speed MPH | gust MPH | rain 1hr in | rain 24hr in | rain mn in | humidity % | barometer mb |
| 20260905024543 | 65 | 17 | 0.0 | 0.0 | 0.00 | 0.00 | 0.00 | 26 | 1011.7 |
| 20260905023038 | 65 | 17 | 0.0 | 0.0 | 0.00 | 0.00 | 0.00 | 28 | 1011.7 |
| 20260905021534 | 65 | 17 | 0.0 | 2.0 | 0.00 | 0.00 | 0.00 | 24 | 1011.7 |
| 20260905020033 | 65 | 17 | 0.0 | 0.0 | 0.00 | 0.00 | 0.00 | 26 | 1011.7 |
| 20260905014525 | 66 | 17 | 0.0 | 0.0 | 0.00 | 0.00 | 0.00 | 28 | 1011.6 |
| 20260905013021 | 66 | 17 | 0.0 | 0.0 | 0.00 | 0.00 | 0.00 | 28 | 1011.8 |
| 20260905011516 | 66 | 16 | 0.0 | 0.0 | 0.00 | 0.00 | 0.00 | 27 | 1011.8 |
| 20260905010019 | 66 | 20 | 0.0 | 2.0 | 0.00 | 0.00 | 0.00 | 23 | 1011.8 |
| 20260905004508 | 66 | 23 | 0.0 | 0.0 | 0.00 | 0.00 | 0.00 | 27 | 1011.9 |
| 20260905003006 | 66 | 23 | 0.0 | 0.0 | 0.00 | 0.00 | 0.00 | 33 | 1011.7 |
| 20260905001600 | 67 | 23 | 0.0 | 1.0 | 0.00 | 0.00 | 0.00 | 30 | 1011.5 |
| 20260905000055 | 68 | 23 | 0.0 | 0.0 | 0.00 | 0.00 | 0.00 | 30 | 1011.2 |
| 20260904234550 | 69 | 23 | 0.0 | 0.0 | 0.00 | 0.00 | 0.00 | 39 | 1011.2 |
| 20260904233046 | 69 | 23 | 0.0 | 0.0 | 0.00 | 0.00 | 0.00 | 50 | 1011.1 |
| 20260904231542 | 70 | 23 | 0.0 | 1.0 | 0.00 | 0.00 | 0.00 | 58 | 1011.2 |
| 20260904230059 | 71 | 23 | 0.0 | 0.0 | 0.00 | 0.00 | 0.00 | 63 | 1011.2 |
| 20260904224533 | 72 | 23 | 0.0 | 0.0 | 0.00 | 0.00 | 0.00 | 64 | 1011.2 |
| 20260904223029 | 73 | 23 | 0.0 | 3.0 | 0.00 | 0.00 | 0.00 | 62 | 1011.0 |
| 20260904221524 | 74 | 21 | 0.0 | 5.0 | 0.00 | 0.00 | 0.00 | 61 | 1010.7 |
| 20260904220020 | 75 | 48 | 0.0 | 5.0 | 0.00 | 0.00 | 0.00 | 61 | 1010.7 |
| 20260904214520 | 76 | 115 | 0.0 | 5.0 | 0.00 | 0.00 | 0.00 | 62 | 1010.6 |
| 20260904213015 | 76 | 41 | 0.0 | 6.0 | 0.00 | 0.00 | 0.00 | 61 | 1010.5 |
| 20260904211507 | 77 | 36 | 1.0 | 7.0 | 0.00 | 0.00 | 0.00 | 60 | 1010.5 |
| 20260904210002 | 77 | 173 | 1.0 | 4.0 | 0.00 | 0.00 | 0.00 | 61 | 1010.6 |
| 20260904204600 | 77 | 227 | 0.0 | 7.0 | 0.00 | 0.00 | 0.00 | 59 | 1010.7 |
| 20260904203056 | 78 | 34 | 1.0 | 8.0 | 0.00 | 0.00 | 0.00 | 60 | 1010.7 |
| 20260904201550 | 79 | 49 | 0.0 | 5.0 | 0.00 | 0.00 | 0.00 | 57 | 1010.8 |
| 20260904200045 | 80 | 92 | 0.0 | 3.0 | 0.00 | 0.00 | 0.00 | 55 | 1010.8 |
| 20260904194542 | 80 | 203 | 1.0 | 5.0 | 0.00 | 0.00 | 0.00 | 57 | 1010.8 |
| 20260904193039 | 80 | 190 | 0.0 | 4.0 | 0.00 | 0.00 | 0.00 | 58 | 1010.8 |
| 20260904191532 | 80 | 30 | 0.0 | 7.0 | 0.00 | 0.00 | 0.00 | 56 | 1010.9 |
| 20260904190037 | 80 | 24 | 1.0 | 8.0 | 0.00 | 0.00 | 0.00 | 57 | 1011.0 |
| 20260904184523 | 80 | 223 | 0.0 | 4.0 | 0.00 | 0.00 | 0.00 | 57 | 1011.1 |
| 20260904183018 | 80 | 15 | 1.0 | 7.0 | 0.00 | 0.00 | 0.00 | 55 | 1011.2 |
| 20260904181514 | 79 | 71 | 1.0 | 5.0 | 0.00 | 0.00 | 0.00 | 56 | 1011.4 |
| 20260904180010 | 79 | 182 | 1.0 | 5.0 | 0.00 | 0.00 | 0.00 | 58 | 1011.6 |
| 20260904174506 | 78 | 5 | 2.0 | 8.0 | 0.00 | 0.00 | 0.00 | 58 | 1011.8 |
| 20260904173001 | 78 | 191 | 1.0 | 9.0 | 0.00 | 0.00 | 0.00 | 58 | 1011.7 |
| 20260904171559 | 78 | 221 | 0.0 | 8.0 | 0.00 | 0.00 | 0.00 | 60 | 1011.6 |
| 20260904170056 | 78 | 38 | 1.0 | 7.0 | 0.00 | 0.00 | 0.00 | 58 | 1011.4 |
| 20260904164547 | 78 | 184 | 0.0 | 5.0 | 0.00 | 0.00 | 0.00 | 60 | 1011.5 |
| 20260904163044 | 77 | 16 | 0.0 | 4.0 | 0.00 | 0.00 | 0.00 | 59 | 1011.8 |
| 20260904161543 | 76 | 37 | 0.0 | 4.0 | 0.00 | 0.00 | 0.00 | 57 | 1012.1 |
| 20260904160035 | 77 | 209 | 1.0 | 7.0 | 0.00 | 0.00 | 0.00 | 58 | 1012.2 |
| 20260904154531 | 75 | 43 | 0.0 | 4.0 | 0.00 | 0.00 | 0.00 | 54 | 1012.3 |
| 20260904153026 | 76 | 207 | 1.0 | 7.0 | 0.00 | 0.00 | 0.00 | 56 | 1012.3 |
| 20260904151526 | 75 | 42 | 0.0 | 3.0 | 0.00 | 0.00 | 0.00 | 54 | 1012.5 |
| 20260904150025 | 76 | 140 | 1.0 | 4.0 | 0.00 | 0.00 | 0.00 | 53 | 1012.6 |
| 20260904144513 | 75 | 198 | 0.0 | 4.0 | 0.00 | 0.00 | 0.00 | 52 | 1012.7 |
| 20260904143009 | 75 | 200 | 0.0 | 5.0 | 0.00 | 0.00 | 0.00 | 48 | 1012.8 |
| 20260904141505 | 74 | 31 | 1.0 | 5.0 | 0.00 | 0.00 | 0.00 | 42 | 1012.6 |
| 20260904140108 | 73 | 203 | 0.0 | 4.0 | 0.00 | 0.00 | 0.00 | 31 | 1012.6 |
| 20260904134556 | 73 | 348 | 0.0 | 6.0 | 0.00 | 0.00 | 0.00 | 21 | 1012.7 |
| 20260904133052 | 73 | 63 | 0.0 | 7.0 | 0.00 | 0.00 | 0.00 | 18 | 1012.8 |
| 20260904131548 | 72 | 10 | 0.0 | 8.0 | 0.00 | 0.00 | 0.00 | 12 | 1012.8 |
| 20260904130057 | 72 | 128 | 0.0 | 7.0 | 0.00 | 0.00 | 0.00 | 100 | 1012.8 |
| 20260904124545 | 71 | 333 | 0.0 | 6.0 | 0.00 | 0.00 | 0.00 | 100 | 1012.7 |
| 20260904123033 | 70 | 38 | 0.0 | 7.0 | 0.00 | 0.00 | 0.00 | 100 | 1012.6 |
| 20260904121529 | 0 | 0.0 | 0.0 | 0.00 | 0.00 | 0.00 | 1012.4 | ||
| 20260904120035 | 0 | 0.0 | 0.0 | 0.00 | 0.00 | 0.00 | 1012.5 | ||
| 20260904114525 | 0 | 0.0 | 0.0 | 0.00 | 0.00 | 0.00 | 1012.2 | ||
| 20260904113019 | 0 | 0.0 | 0.0 | 0.00 | 0.00 | 0.00 | 1012.2 | ||
| 20260904111512 | 0 | 0.0 | 0.0 | 0.00 | 0.00 | 0.00 | 1012.0 | ||
| 20260904110007 | 0 | 0.0 | 0.0 | 0.00 | 0.00 | 0.00 | 1011.9 | ||
| 20260904104509 | 0 | 0.0 | 0.0 | 0.00 | 0.00 | 0.00 | 1011.6 | ||
| 20260904103059 | 0 | 0.0 | 0.0 | 0.00 | 0.00 | 0.00 | 1011.4 | ||
| 20260904101554 | 65 | 23 | 0.0 | 0.0 | 0.00 | 0.00 | 0.00 | 100 | 1011.2 |
| 20260904100049 | 65 | 23 | 0.0 | 0.0 | 0.00 | 0.00 | 0.00 | 100 | 1011.3 |
| 20260904094542 | 65 | 23 | 0.0 | 0.0 | 0.00 | 0.00 | 0.00 | 100 | 1011.4 |
| 20260904093039 | 66 | 23 | 0.0 | 0.0 | 0.00 | 0.00 | 0.00 | 100 | 1011.4 |
| 20260904091534 | 66 | 23 | 0.0 | 0.0 | 0.00 | 0.00 | 0.00 | 100 | 1011.3 |
| 20260904090033 | 66 | 23 | 0.0 | 0.0 | 0.00 | 0.00 | 0.00 | 100 | 1011.2 |
| 20260904084525 | 66 | 23 | 0.0 | 0.0 | 0.00 | 0.00 | 0.00 | 100 | 1011.2 |
| 20260904083023 | 66 | 23 | 0.0 | 0.0 | 0.00 | 0.00 | 0.00 | 100 | 1011.1 |
| 20260904081516 | 66 | 23 | 0.0 | 0.0 | 0.00 | 0.00 | 0.00 | 100 | 1010.9 |
| 20260904080014 | 67 | 23 | 0.0 | 0.0 | 0.00 | 0.00 | 0.00 | 100 | 1010.8 |
| 20260904074507 | 67 | 23 | 0.0 | 0.0 | 0.00 | 0.00 | 0.00 | 100 | 1010.8 |
| 20260904073003 | 67 | 23 | 0.0 | 0.0 | 0.00 | 0.00 | 0.00 | 100 | 1010.9 |
| 20260904071559 | 67 | 23 | 0.0 | 0.0 | 0.00 | 0.00 | 0.00 | 100 | 1010.9 |
| 20260904070055 | 67 | 23 | 0.0 | 0.0 | 0.00 | 0.00 | 0.00 | 100 | 1011.2 |
| 20260904064555 | 67 | 23 | 0.0 | 0.0 | 0.00 | 0.00 | 0.00 | 100 | 1011.3 |
| 20260904063046 | 67 | 23 | 0.0 | 0.0 | 0.00 | 0.00 | 0.00 | 100 | 1011.4 |
| 20260904061545 | 67 | 23 | 0.0 | 0.0 | 0.00 | 0.00 | 0.00 | 100 | 1011.7 |
| 20260904060037 | 68 | 23 | 0.0 | 0.0 | 0.00 | 0.00 | 0.00 | 100 | 1012.0 |
| 20260904054537 | 68 | 23 | 0.0 | 0.0 | 0.00 | 0.00 | 0.00 | 100 | 1012.0 |
| 20260904053028 | 68 | 23 | 0.0 | 0.0 | 0.00 | 0.00 | 0.00 | 100 | 1012.1 |
| 20260904051524 | 68 | 23 | 0.0 | 0.0 | 0.00 | 0.00 | 0.00 | 100 | 1011.8 |
| 20260904050021 | 68 | 23 | 0.0 | 0.0 | 0.00 | 0.00 | 0.00 | 100 | 1011.9 |
| 20260904044523 | 68 | 23 | 0.0 | 0.0 | 0.00 | 0.00 | 0.00 | 100 | 1012.1 |
| 20260904043013 | 69 | 23 | 0.0 | 0.0 | 0.00 | 0.00 | 0.00 | 100 | 1012.2 |
| 20260904041507 | 69 | 23 | 0.0 | 0.0 | 0.00 | 0.00 | 0.00 | 100 | 1012.2 |
| 20260904040002 | 69 | 23 | 0.0 | 0.0 | 0.00 | 0.00 | 0.00 | 100 | 1012.2 |
| 20260904034558 | 69 | 23 | 0.0 | 1.0 | 0.00 | 0.00 | 0.00 | 100 | 1012.2 |
| 20260904033055 | 70 | 22 | 0.0 | 1.0 | 0.00 | 0.00 | 0.00 | 100 | 1012.5 |
| 20260904031553 | 70 | 22 | 0.0 | 0.0 | 0.00 | 0.00 | 0.00 | 100 | 1012.4 |
| 20260904030045 | 70 | 22 | 0.0 | 0.0 | 0.00 | 0.00 | 0.00 | 100 | 1012.5 |